Hourly Data Report for September 12, 2017

All times are specified in Local Standard Time (LST). Add 1 hour to adjust for Daylight Saving Time where and when it is observed.

MISCOU ISLAND (AUT)
NEW BRUNSWICK

48°00'32.002" N
64°29'39.008" W
4.00 m
8103050
71719
WMI

Download Data

Hourly Data (September 2017)
Hourly Data Report for September 12, 2017
Temp Definition
°C
Dew Point Temp Definition
°C
Rel Hum Definition
%
Wind Dir Definition
10's deg

Wind Spd Definition
km/h
Visibility Definition
km
Stn Press Definition
kPa
Hmdx Definition


Wind Chill Definition


Weather Definition


TIME
00:00 12.1 10.7 91 33 5   101.50     LegendNANA
01:00 12.7 10.9 89 8 8   101.49     LegendNANA
02:00 9.2 7.6 90 1 3   101.40     LegendNANA
03:00 11.5 10.3 92 33 10   101.36     LegendNANA
04:00 12.5 11.0 91 36 11   101.28     LegendNANA
05:00 12.3 10.7 91 36 10   101.26     LegendNANA
06:00 12.1 10.6 91 3 6   101.21     LegendNANA
07:00 12.7 11.0 89 4 5   101.20     LegendNANA
08:00 13.4 10.6 83 6 5   101.17     LegendNANA
09:00 14.1 11.4 83 10 7   101.11     LegendNANA
10:00 14.9 11.8 81 11 7   101.08     LegendNANA
11:00 15.1 11.6 80 11 9   101.01     LegendNANA
12:00 16.2 12.3 78 12 12   100.90     LegendNANA
13:00 16.2 11.3 72 12 14   100.86     LegendNANA
14:00 16.5 12.0 75 13 14   100.76     LegendNANA
15:00 16.3 11.8 75 13 12   100.69     LegendNANA
16:00 15.1 11.4 78 14 13   100.60     LegendNANA
17:00 15.4 12.0 80 13 12   100.56     LegendNANA
18:00 14.2 11.9 86 12 10   100.55     LegendNANA
19:00 13.8 11.9 88 11 10   100.56     LegendNANA
20:00 13.8 11.9 88 9 7   100.58     LegendNANA
21:00 13.5 11.4 87 10 9   100.57     LegendNANA
22:00 12.9 10.9 88 15 7   100.58     LegendNANA
23:00 10.8 9.2 90 19 8   100.54     LegendNANA

Notes on Data Quality.

Legend

  • E = Estimated
  • M = Missing
  • NA = Not Available
  • ‡ = Partner data that is not subject to review by the National Climate Archives
Date modified: